SCP
0 0 0 0 0 0 0 0 0 0 1 2 3 3 2 1 1 1 0 0 0 0 0 0 0 0 0 0 0 0 0 0 1 1 1 1 0 0 0 0 0 0 0
0 0 0 0 0 0 0 0 0 0 0 1 2 2 2 2 1 1 1 0 0 0 0 0 0 0 0 0 0 0 0 0 0 1 1 0 0 0 0 0 0 0 0
0 0 0 0 0 0 0 0 0 0 0 0 1 1 1 1 1 1 1 0 0 0 0 0 0 0 0 0 0 0 0 0 0 0 0 0 0 0 0 0 0 0 0
0 0 0 0 0 0 0 0 0 0 0 0 0 0 1 1 1 1 1 1 0 0 0 0 0 0 0 0 0 0 0 0 0 0 0 0 0 0 0 0 0 0 0
0 0 0 0 0 0 0 0 0 0 0 0 0 0 0 0 0 1 1 1 1 0 0 0 0 0 0 0 0 0 0 0 0 0 0 0 0 0 0 0 0 0 0
1 0 0 0 0 0 0 0 0 0 0 0 0 0 0 0 0 0 0 0 1 1 0 0 0 0 0 0 0 0 0 0 0 0 0 0 0 0 0 0 0 0 0
0 0 0 0 0 0 0 0 0 0 0 0 0 0 0 0 0 0 0 0 0 0 0 0 0 0 0 0 0 0 0 0 0 0 0 0 0 -0 -0 -0 0 0 0
0 0 0 0 0 0 0 0 0 0 0 0 0 0 0 0 0 0 0 0 0 0 0 0 0 0 0 0 0 0 0 0 0 0 0 -0 -0 -0 -0 -0 0 0 0
0 0 0 0 0 0 0 0 0 0 0 0 0 0 0 0 0 0 0 0 0 0 0 0 0 0 0 0 0 0 0 0 0 0 0 -0 -0 -0 0 0 0 0 0
0 0 0 0 0 0 0 0 0 0 0 0 0 0 0 0 0 0 0 0 0 0 0 0 0 0 0 0 0 0 0 0 0 0 0 0 0 0 0 0 0 0 0
0 0 0 0 0 0 0 0 0 0 0 0 0 0 0 0 0 0 0 0 0 0 0 0 0 0 0 0 0 0 0 0 0 0 0 0 0 0 0 0 0 0 0
0 0 0 0 0 0 0 0 0 0 0 0 0 0 0 0 0 0 0 0 0 0 0 0 0 0 0 0 0 0 0 0 0 0 0 0 0 0 0 0 0 0 0
0 0 0 0 0 0 0 0 0 0 0 0 0 0 0 0 0 0 0 0 0 0 0 0 0 0 0 0 0 0 0 0 0 0 0 0 0 0 0 0 0 0 0
0 0 0 0 0 0 0 0 0 0 0 0 0 0 0 0 0 0 0 0 0 0 0 0 0 0 0 0 0 0 0 0 0 0 0 0 0 0 0 0 0 0 0
0 0 0 0 0 0 0 0 0 0 0 0 0 0 0 0 0 0 0 0 0 0 0 0 0 0 0 0 0 0 0 0 0 0 0 0 0 0 0 0 0 0 0
0 0 0 0 0 0 0 0 0 0 0 0 0 0 0 0 0 0 0 0 0 0 0 0 0 0 0 0 0 0 0 0 0 0 0 0 0 0 0 0 0 0 0
0 0 0 0 0 0 0 0 0 0 0 0 0 0 0 0 0 0 0 0 0 0 0 0 0 0 0 0 0 0 0 0 0 0 0 0 0 0 0 0 0 0 0
0 0 0 0 0 0 0 0 0 0 0 0 0 0 0 0 0 0 0 0 0 0 0 0 0 0 0 0 0 0 0 0 0 0 0 0 0 0 0 0 0 0 0
0 0 0 0 0 0 0 0 0 0 0 0 0 0 0 0 0 0 0 0 0 0 0 0 0 0 0 0 0 0 0 0 0 0 0 0 0 0 0 0 0 0 0
0 0 0 0 0 0 0 0 0 0 0 0 0 0 0 0 0 0 0 0 0 0 0 0 0 0 0 0 0 0 0 0 0 0 0 0 0 0 0 0 0 0 0
0 0 0 0 0 0 0 0 0 0 0 0 0 0 0 0 0 0 0 0 0 0 0 0 0 0 0 0 0 0 0 0 0 0 0 0 0 0 0 0 0 0 0
0 0 0 0 0 0 0 0 0 0 0 0 0 0 0 0 0 0 0 0 0 0 0 0 0 0 0 0 0 0 0 0 0 0 0 0 0 0 0 0 0 0 0
0 0 0 0 0 0 0 0 0 0 0 0 0 0 0 0 0 0 0 0 0 0 0 0 0 0 0 0 0 0 0 0 0 0 0 0 0 0 0 0 0 0 0
0 0 0 0 0 0 0 0 0 0 0 0 0 0 0 0 0 0 0 0 0 0 0 0 0 0 0 0 0 0 0 0 0 0 0 0 0 0 0 0 0 0 0
0 0 0 0 0 0 0 0 0 0 -0 -0 0 0 0 0 0 0 0 0 0 0 0 0 0 0 0 0 0 0 0 0 0 0 0 0 0 0 0 0 0 0 0
0 0 0 0 0 0 0 0 0 0 0 0 0 0 0 0 0 0 0 0 0 0 0 0 0 0 0 0 0 0 0 0 0 0 0 0 0 0 0 0 0 0 0
Wind_Speed
5 5 6 6 6 7 8 8 7 5 5 7 7 7 8 8 7 7 7 7 6 5 5 6 6 6 4 4 4 5 6 6 5 2 2 6 9 10 9 9 9 9 10
5 6 6 7 6 7 8 8 9 9 6 5 6 7 8 10 9 8 8 7 6 5 5 6 7 6 5 4 3 5 6 6 5 7 5 5 8 9 10 10 9 9 9
7 7 8 9 8 8 8 8 8 9 10 8 5 7 8 9 10 10 9 7 6 5 4 5 5 5 4 3 3 5 5 4 4 8 7 6 5 7 10 10 10 8 9
11 10 10 11 11 10 8 8 9 10 10 10 8 7 8 9 10 11 10 8 6 5 4 4 4 3 3 4 2 4 4 1 5 8 9 8 6 7 7 9 8 6 6
9 10 11 12 12 12 10 9 10 10 12 11 9 8 6 7 9 10 10 10 7 5 4 2 2 6 7 5 3 3 3 3 6 8 9 8 6 6 5 5 8 7 7
8 8 9 10 12 12 12 11 11 11 11 10 9 8 7 7 10 13 12 9 6 5 3 3 6 6 8 10 10 9 7 6 7 8 8 8 6 5 3 5 6 8 6
8 10 10 10 11 11 12 11 11 11 10 10 8 7 7 6 7 11 12 9 6 5 3 4 5 7 7 7 7 8 9 9 9 8 9 7 6 5 5 6 6 7 5
10 10 11 11 13 11 11 10 10 9 8 8 7 7 6 6 6 8 9 7 7 5 4 5 7 8 6 7 6 7 7 5 6 6 7 6 5 6 7 5 7 7 5
12 12 13 13 13 13 13 11 10 9 8 7 7 8 7 4 2 5 5 3 6 6 5 6 8 8 9 8 7 8 8 7 9 11 10 10 9 7 6 6 7 6 5
13 12 13 13 14 15 14 11 11 9 8 8 8 8 7 4 4 5 7 2 4 4 3 5 9 11 10 8 7 7 8 7 8 8 7 7 7 8 9 4 2 4 6
11 12 13 13 14 15 14 11 10 11 11 9 8 7 6 6 8 10 10 5 2 3 2 3 6 15 12 9 7 6 9 8 7 6 5 4 4 5 6 6 4 1 5
12 15 15 13 15 15 12 11 10 9 9 9 8 8 7 7 10 11 13 10 7 2 2 4 5 15 13 10 6 11 13 10 6 5 4 4 4 6 6 5 6 7 9
16 17 16 15 13 13 13 12 9 8 7 8 8 9 8 6 8 12 14 13 10 5 0 6 6 13 13 8 11 15 12 6 5 5 4 5 6 7 5 4 5 6 8
18 17 14 14 13 12 10 9 9 8 7 7 8 8 4 5 7 7 8 7 7 5 1 2 9 12 9 10 10 9 6 4 4 4 6 7 6 5 5 4 4 5 6
15 14 13 12 12 11 9 8 9 7 5 3 2 4 2 3 6 10 8 6 5 6 5 4 6 7 7 8 7 5 4 3 3 5 8 7 5 5 4 4 5 5 5
13 12 9 8 8 8 7 7 9 9 8 7 6 5 3 4 7 12 11 10 10 10 9 8 9 8 8 8 7 5 4 4 4 6 7 6 5 5 5 5 5 6 7
13 11 8 7 7 7 7 7 6 7 11 9 8 8 8 9 12 13 12 10 10 10 9 9 8 7 8 8 6 6 5 5 5 5 5 5 4 5 5 4 3 5 5
11 11 8 6 6 6 6 6 6 6 6 6 6 7 9 12 12 12 11 8 6 8 7 6 7 7 7 7 7 6 6 6 6 5 5 5 5 5 4 4 4 5 5
8 5 4 5 4 4 5 6 5 6 5 3 5 5 7 8 7 8 10 6 8 7 4 3 5 6 6 6 6 7 7 6 6 5 5 6 5 5 5 4 5 6 6
5 5 5 3 2 3 4 4 4 4 3 3 5 7 7 6 5 5 5 5 5 3 2 2 3 6 6 5 6 7 7 5 6 6 5 5 5 5 5 6 6 5 3
3 3 3 3 3 3 3 4 4 4 3 5 6 9 10 7 7 7 7 6 6 5 4 3 2 6 7 6 7 7 7 6 5 6 6 5 5 5 5 6 6 5 4
3 2 1 1 1 2 3 4 4 4 5 8 9 10 9 6 7 6 6 8 8 7 7 4 3 6 7 8 8 7 7 6 5 6 6 4 4 5 6 6 6 5 5
3 2 1 1 2 4 4 4 3 3 6 9 9 9 8 7 7 7 7 8 8 8 6 4 3 5 7 7 7 6 7 7 5 6 6 5 4 4 5 5 6 5 6
5 3 1 1 1 2 3 3 4 6 7 7 7 7 7 7 8 8 7 6 6 5 4 2 2 5 10 8 7 7 7 7 6 5 7 6 5 4 4 5 5 6 6
6 6 5 4 3 2 2 3 4 4 4 4 5 6 6 6 7 7 7 6 6 5 5 3 1 3 10 12 10 8 10 12 9 6 5 4 6 6 5 6 5 5 5
2 2 2 2 2 1 1 0 1 1 2 3 4 6 7 7 7 8 8 7 6 5 5 3 5 5 8 10 10 10 11 12 10 7 5 5 4 4 5 4 5 5 5
Wind_Direction
322 322 314 313 322 322 316 317 318 315 324 322 306 289 276 266 259 256 260 268 270 284 295 295 302 304 304 294 277 261 251 233 222 160 93 117 117 114 109 108 107 101 99
292 288 285 286 284 282 287 296 305 305 298 299 306 294 280 273 265 260 261 268 273 282 290 296 305 316 321 314 312 287 264 235 190 149 130 122 119 117 117 114 112 109 106
273 266 272 273 273 270 273 278 282 291 298 301 304 308 300 285 275 268 260 257 259 266 280 293 303 313 319 331 326 310 287 249 171 142 135 126 121 122 116 110 111 114 113
259 255 257 261 265 266 262 262 269 272 276 284 291 298 305 303 286 272 264 254 251 255 260 269 285 319 348 339 350 331 311 242 141 134 132 131 128 122 122 125 125 130 127
266 257 254 256 259 263 260 254 256 259 263 261 263 268 287 304 296 292 276 258 245 244 246 242 81 83 67 41 45 20 10 82 119 126 129 130 131 131 134 136 133 133 124
285 284 278 268 261 259 255 252 251 252 255 252 250 254 259 278 310 313 295 269 253 243 221 145 140 133 102 78 66 54 54 89 113 122 129 134 129 128 127 140 145 142 141
296 299 298 292 286 277 266 252 246 248 250 247 247 254 256 255 274 284 278 271 256 235 188 170 177 140 136 117 97 77 63 77 99 120 131 133 140 161 171 178 162 145 135
293 295 295 296 297 296 290 273 255 250 251 247 249 255 266 277 278 257 254 262 263 235 184 162 138 150 151 146 131 100 76 71 116 121 124 129 148 185 202 180 140 125 127
288 290 292 287 286 289 289 290 285 268 256 253 252 245 249 252 255 237 219 257 266 245 196 159 144 143 151 150 127 114 103 90 94 111 120 128 131 128 137 127 129 135 142
282 288 292 288 282 279 276 280 287 283 269 254 246 240 241 215 157 184 181 196 274 278 230 164 151 142 151 149 137 132 126 127 128 123 121 122 109 84 71 82 134 158 149
286 294 293 287 282 279 272 265 268 271 270 263 256 250 237 190 161 164 170 171 155 349 312 197 151 147 151 155 155 144 143 141 138 135 126 113 98 83 68 53 39 93 137
298 295 292 284 279 277 273 264 258 260 266 265 256 250 241 191 170 169 170 166 148 147 320 299 173 161 155 156 153 149 154 153 150 152 149 146 120 92 77 61 51 59 86
296 290 286 280 273 271 271 268 263 255 254 256 252 244 233 197 174 181 183 172 152 143 219 297 214 170 151 147 151 156 164 179 164 161 151 127 109 108 102 86 71 67 67
287 284 280 275 269 264 261 261 261 255 247 243 249 258 238 175 171 182 193 184 151 123 101 216 183 171 152 139 151 163 186 200 162 145 122 115 117 128 137 144 129 110 93
283 279 274 268 265 261 256 253 256 247 217 194 273 292 262 196 197 192 188 182 161 139 136 169 180 170 148 146 159 179 198 169 143 123 123 131 146 160 160 159 141 124 115
280 275 269 266 263 256 253 258 245 231 209 201 226 244 241 224 196 185 183 168 153 149 160 187 180 168 154 155 165 178 176 151 134 124 133 152 171 166 156 162 165 154 149
277 275 271 266 259 253 247 247 245 224 218 217 219 219 214 185 176 178 176 169 171 170 185 190 177 164 155 161 171 167 162 147 132 136 154 168 156 141 144 162 156 136 136
281 278 273 264 258 250 244 242 235 226 221 207 193 197 180 172 172 174 165 155 175 190 199 179 164 157 160 166 166 161 158 144 146 160 169 163 145 144 153 155 142 136 128
290 279 274 270 256 236 229 234 233 233 230 198 138 133 145 143 138 149 157 178 181 182 187 165 159 157 158 158 155 150 144 149 161 157 150 141 144 155 161 160 136 141 146
297 295 290 269 229 224 222 223 226 230 214 175 165 151 149 150 140 146 179 190 176 168 188 225 169 146 143 144 134 133 142 153 150 141 138 146 162 170 162 144 137 151 179
319 320 281 248 240 231 229 227 222 211 205 189 168 155 162 158 150 161 172 167 167 187 213 237 200 151 145 143 137 143 151 149 154 149 153 167 169 154 138 132 144 172 168
340 351 13 181 181 203 216 225 235 230 192 149 136 144 158 144 142 161 164 155 171 199 212 217 205 158 150 151 144 153 156 156 168 152 154 166 151 148 150 153 169 177 156
349 344 294 221 200 200 218 218 195 135 110 117 131 146 161 152 152 168 163 160 181 201 208 199 198 163 149 144 146 158 160 163 169 153 153 157 158 157 153 158 167 166 161
349 357 18 88 134 134 129 117 105 100 100 111 126 142 147 148 163 172 167 167 190 203 183 179 186 164 149 145 153 169 165 159 163 158 159 162 169 174 163 163 175 182 182
357 2 7 16 35 68 91 95 90 92 104 119 135 148 152 158 169 173 174 178 196 199 173 184 234 178 161 161 170 174 159 154 163 166 163 175 180 182 177 176 184 194 192
306 327 327 313 301 281 248 180 153 166 168 174 175 174 172 176 179 178 180 186 197 187 174 204 245 224 170 176 175 153 146 146 148 158 175 190 204 188 181 196 207 207 209